Regional Weather Roundup
Issued by NWS State College, PA

Home | Current Version | Previous Version | Graphics & Text | Print | Product List | Glossary On
Versions: 1 2 3 4 5 6 7 8 9 10 11 12 13 14 15 16 17 18 19 20 21 22 23 24 25 26 27 28 29 30 31 32 33 34 35 36 37 38 39 40 41 42 43 44 45 46 47 48 49 50
000
ASUS41 KCTP 210103
RWRCTP

REGIONAL WEATHER ROUNDUP
NATIONAL WEATHER SERVICE STATE COLLEGE PA
800 PM EST FRI JAN 20 2017

Note: "fair" indicates few or no clouds below 12,000 feet with no
significant weather and/or obstructions to visibility.

* = STATION THAT DOES NOT REPORT PRECIPITATION /E.G. RAIN...SNOW...ETC/
    THUNDER OR FOG.

PAZ002>004-007>009-013>016-020>023-029>032-210200-
WESTERN PENNSYLVANIA

CITY           SKY/WX    TMP DP  RH WIND       PRES   REMARKS
ERIE           CLOUDY    49  47  93 W6        29.75R FOG
MEADVILLE      CLOUDY    49  47  93 S6        29.75S FOG
FRANKLIN*        N/A     48  46  93 SW5       29.78S
NEW CASTLE     FOG       46  46 100 CALM      29.78R VSB 3/4
BEAVER COUNTY  CLOUDY    52  50  93 S6        29.77R
BUTLER*        CLOUDY    50  48  93 S5        29.81R
PITTSBURGH INT CLOUDY    54  51  90 S5        29.78R
PITTSBURGH     CLOUDY    54  48  80 S6        29.78S
INDIANA*       FOG       46  46 100 CALM      29.81S VSB 1/2
LATROBE        MOCLDY    50  50 100 SW6       29.81R
WASHINGTON CO* CLOUDY    50  48  93 CALM      29.79S
$$

PAZ004>006-010>012-017>019-024>028-033>037-041-042-045-046-049>053-210200-
CENTRAL PENNSYLVANIA

CITY           SKY/WX    TMP DP  RH WIND       PRES   REMARKS
BRADFORD       FOG       44  44 100 SW5       29.77R VSB 1/2
DUBOIS         FOG       43  41  93 SE5       29.77S VSB 1/4
CLEARFIELD     FOG       38  38 100 N3        29.80F VSB 1/4
JOHNSTOWN      CLOUDY    49  47  93 S5        29.79S
ALTOONA        CLOUDY    41  39  93 CALM      29.83F FOG
STATE COLLEGE  CLOUDY    37  37 100 CALM      29.84S FOG
WILLIAMSPORT   CLOUDY    39  36  89 CALM      29.86F FOG
SELINSGROVE    CLOUDY    39  38  96 CALM      29.89S FOG
FT INDIANTOWN  CLOUDY    37  37 100 CALM      29.90R FOG
CAPITAL CITY   CLOUDY    41  38  89 E3        29.90S FOG
HARRISBURG     CLOUDY    40  40 100 CALM      29.90R FOG
YORK           CLOUDY    41  41 100 SE5       29.88S FOG
$$

PAZ038>040-043-044-047-048-054-055-060>062-067>071-210200-
EASTERN PENNSYLVANIA

CITY           SKY/WX    TMP DP  RH WIND       PRES   REMARKS
SCRANTON       LGT RAIN  39  38  96 CALM      29.86R FOG
MOUNT POCONO   CLOUDY    34  33  96 S5        29.84S FOG
ALLENTOWN      CLOUDY    40  37  89 CALM      29.91R FOG
QUAKERTOWN*    CLOUDY    37  37 100 CALM      29.91S
READING        CLOUDY    39  39 100 CALM      29.90S FOG
LANCASTER      CLOUDY    41  41 100 CALM      29.90S FOG
COATESVILLE    FOG       39  39 100 CALM      29.91S VSB 1/4
POTTSTOWN      CLOUDY    39  38  96 CALM      29.92S FOG
BLUE BELL      CLOUDY    37  37 100 CALM      29.90S
DOYLESTOWN     CLOUDY    40  39  97 S3        29.90F FOG
WILLOW GROVE   NOT AVBL
NORTH PHILA    CLOUDY    42  40  92 SE3       29.93F FOG
PHILADELPHIA   LGT RAIN  42  40  92 CALM      29.92F FOG
$$



USA.gov is the U.S. government's official web portal to all federal, state and local government web resources and services.